Погода в Ключах

Россия / Рязанская область     54°15′59″N   42°10′13″E
темп.,
°C
ветер,
м/с
пор.,
м/с
влажн.,
%
обл.,
%
осадки,
мм/ч
давл.,
гПа
погр.,
м
8 августа, пн
пн800:00+19ююв22523 0.0 101835
03:00+18ююв22581 0.0 101933
06:00+18ююв12639 0.0 101920
09:00+25ююв234530 0.0 1019363
12:00+31зюз242742 0.0 10192061
15:00+31зюз34245 0.0 10192437
18:00+29з113573 0.0 101816
21:00+24св114286 0.0 101912
9 августа, вт
вт900:00+19вюв225810 0.0 102015
03:00+19ююв225110 0.0 101917
06:00+19ююз115766 0.0 101915
09:00+26ю2336100 0.0 1019446
12:00+30ю343097 0.0 10181623
15:00+31юв1426100 0.0 10172814
18:00+26св0547100 0.0 1017460
21:00+21всв5116975 0.1 1017422
10 августа, ср
ср1000:00+18ссв41081100 0.0 1017313
03:00+17ссв388798 0.0 1017219
06:00+17ссв3686100 0.0 1017251
09:00+20с3476100 0.3 1018511
12:00+23с4562100 0.1 10181030
15:00+24с4457100 0.1 10181278
18:00+22с3462100 0.0 10191013
21:00+17с3681100 0.0 1020156
11 августа, чт
чт1100:00+15св2491100 0.0 102192
03:00+14ссв2596100 0.0 1021101
06:00+15ссв2687100 0.0 1023176
09:00+20св3456100 0.0 1024633
12:00+24св333949 0.0 10231593
15:00+26ссв32345 0.0 10221927
18:00+24ссв34394 0.0 1022674
21:00+18св22540 0.0 102329
12 августа, пт
пт1200:00+15всв22600 0.0 102421
03:00+14в11743 0.0 102410
06:00+15в11740 0.0 102513
09:00+23ю01480 0.0 1025577
12:00+27сз12343 0.0 10241614
15:00+28ссз23284 0.0 10231886
18:00+26с22360 0.0 1022189
21:00+18ссв22460 0.0 102411